This demonstration page uses our WeatherBlox Daily Observations layout. Learn more.

Left ArrowRight Arrow

44.8408, -93.29828

Hourly Observations for September 9, 2022

Temp ( °F °C ) Dew Point ( °F °C ) Humidity (%) Winds ( mph kmh ) Pressure ( in mb ) Visibility ( mi km ) Precip ( " mm )
12:53 am 00:53 Mostly Cloudy 75 23.9 62 16.7 64 64 SSE 10 17 29.70 1006 10 16 0.00 0.00
1:53 am 01:53 Partly Cloudy 76 24.4 62 16.7 62 62 SSW 8 13 29.70 1006 10 16 0.00 0.00
2:53 am 02:53 Mostly Cloudy 75 23.9 62 16.7 64 64 WSW 7 11 29.70 1006 10 16 0.00 0.00
3:53 am 03:53 Cloudy 74 23.3 62 16.7 66 66 WSW 7 11 29.71 1006 10 16 0.00 0.00
4:53 am 04:53 Cloudy 73 22.8 62 16.7 68 68 S 7 11 29.71 1006 10 16 0.00 0.00
5:53 am 05:53 Cloudy 72 22.2 61 16.1 68 68 SSW 6 9 29.71 1006 10 16 0.00 0.00
6:53 am 06:53 Mostly Cloudy 71 21.7 62 16.7 73 73 WSW 6 9 29.73 1007 10 16 0.00 0.00
7:53 am 07:53 Cloudy 66 18.9 60 15.6 81 81 NNW 17 28 29.76 1008 10 16 0.00 0.00
8:03 am 08:03 Cloudy 66 18.9 59 15 78 78 N 18 30 29.76 1008 10 16 0.00 0.00
8:17 am 08:17 Cloudy 65 18.3 58 14.4 78 78 N 17 28 29.77 1008 10 16 0.00 0.00
8:44 am 08:44 Cloudy with Drizzle 64 17.8 58 14.4 80 80 N 18 30 29.80 1009 7 11 0.01 0.13
8:53 am 08:53 Cloudy with Drizzle 63 17.2 58 14.4 84 84 N 18 30 29.81 1010 7 11 0.01 0.13
9:09 am 09:09 Cloudy with Drizzle 63 17.2 58 14.4 84 84 N 16 26 29.82 1010 2 2 0.01 0.13
9:14 am 09:14 Cloudy with Nearby Thunderstorms 63 17.2 58 14.4 84 84 N 14 22 29.82 1010 3 5 0.01 0.13
9:35 am 09:35 Cloudy 63 17.2 57 13.9 81 81 N 16 26 29.84 1010 9 14 0.01 0.13
9:53 am 09:53 Cloudy 64 17.8 56 13.3 75 75 NNE 12 19 29.83 1010 10 16 0.01 0.13
10:00 am 10:00 Cloudy 64 17.8 56 13.3 75 75 N 16 26 29.81 1010 10 16 0.00 0.00
10:36 am 10:36 Cloudy with Nearby Thunderstorms 62 16.7 55 12.8 78 78 NNE 16 26 29.81 1009 10 16 0.00 0.00
10:53 am 10:53 Cloudy with Light Rain 62 16.7 56 13.3 80 80 NNE 14 22 29.82 1010 7 11 0.01 0.25
10:58 am 10:58 Cloudy with Nearby Thunderstorms 62 16.7 57 13.9 84 84 N 9 15 29.83 1010 10 16 0.01 0.13
11:10 am 11:10 Cloudy 62 16.7 57 13.9 84 84 N 12 19 29.83 1010 10 16 0.01 0.13
11:53 am 11:53 Cloudy 62 16.7 56 13.3 80 80 N 13 20 29.86 1011 10 16 0.01 0.13
12:03 pm 12:03 Cloudy with Light Rain 62 16.7 57 13.9 84 84 N 12 19 29.86 1011 10 16 0.01 0.13
12:40 pm 12:40 Cloudy 63 17.2 56 13.3 78 78 N 8 13 29.87 1011 10 16 0.01 0.13
12:53 pm 12:53 Cloudy with Light Rain 63 17.2 56 13.3 78 78 N 7 11 29.89 1012 10 16 0.01 0.13
1:41 pm 13:41 Mostly Cloudy 63 17.2 56 13.3 78 78 NNW 16 26 29.91 1013 10 16 0.01 0.13
1:53 pm 13:53 Cloudy 63 17.2 55 12.8 75 75 NNW 16 26 29.91 1013 10 16 0.01 0.13
2:16 pm 14:16 Cloudy 62 16.7 54 12.2 75 75 NNW 16 26 29.91 1013 10 16 0.00 0.00
2:53 pm 14:53 Cloudy with Rain 61 16.1 55 12.8 81 81 N 14 22 29.91 1013 8 13 0.02 0.51
3:29 pm 15:29 Cloudy with Light Rain 60 15.6 56 13.3 86 86 N 10 17 29.90 1013 9 14 0.01 0.25
3:53 pm 15:53 Cloudy with Light Rain 61 16.1 57 13.9 87 87 N 14 22 29.90 1013 10 16 0.02 0.51
4:53 pm 16:53 Cloudy 61 16.1 55 12.8 81 81 N 14 22 29.91 1013 10 16 0.01 0.13
5:53 pm 17:53 Cloudy with Light Rain 61 16.1 56 13.3 83 83 N 10 17 29.94 1014 10 16 0.01 0.13
6:53 pm 18:53 Cloudy with Light Rain 60 15.6 56 13.3 86 86 NNW 7 11 29.97 1015 8 13 0.02 0.51
7:53 pm 19:53 Cloudy 60 15.6 57 13.9 90 90 NNW 6 9 29.98 1015 10 16 0.03 0.76
8:07 pm 20:07 Cloudy with Light Rain 60 15.6 57 13.9 90 90 Calm 29.98 1015 10 16 0.01 0.13
8:41 pm 20:41 Cloudy 60 15.6 58 14.4 93 93 NW 5 7 30.00 1016 10 16 0.01 0.13
8:53 pm 20:53 Mostly Cloudy 60 15.6 58 14.4 93 93 NW 5 7 30.00 1016 10 16 0.01 0.13
9:53 pm 21:53 Cloudy 60 15.6 58 14.4 93 93 NNW 6 9 30.00 1016 10 16 0.00 0.00
10:53 pm 22:53 Mostly Cloudy 61 16.1 58 14.4 90 90 W 8 13 30.04 1017 10 16 0.01 0.13
11:53 pm 23:53 Mostly Cloudy 60 15.6 59 15 96 96 WSW 5 7 30.05 1018 10 16 0.01 0.25

Powered by AerisWeather